Theta_e
287 287 286 286 285 285 285 284 284 283 283 282 282 282 281 282 282 282 282 282 282 281 282 281 281 281 282 281 281 281 281 280 279 280 279 279 278 279 280 278 278 279
286 286 286 285 285 285 284 284 283 282 282 281 282 281 282 281 282 282 282 282 281 281 281 281 280 280 279 279 279 278 279 278 278 281 278 278 278 277 277 278 277 278
285 284 284 283 283 283 283 283 283 282 282 281 282 282 283 281 281 281 280 280 280 280 280 280 279 278 278 277 278 277 277 277 277 277 277 277 278 277 277 277 277 277
284 284 284 283 283 282 282 282 282 282 281 281 280 281 282 282 281 280 279 280 278 278 278 277 277 277 277 277 277 277 276 277 276 276 276 277 277 277 277 277 277 277
284 284 283 283 283 283 282 281 281 280 280 280 280 280 280 279 279 278 278 278 277 277 277 277 276 276 276 276 276 275 276 276 276 276 275 275 276 277 277 276 276 275
283 283 283 283 283 282 281 281 280 280 280 279 279 280 279 278 278 277 277 277 276 276 276 276 276 276 275 275 275 275 275 276 275 274 274 274 274 275 277 276 275 274
282 282 282 282 282 281 281 280 280 280 279 279 279 278 278 278 277 277 276 276 276 276 275 275 275 274 275 274 274 274 274 275 275 274 273 273 274 274 274 275 274 274
281 281 281 281 281 280 280 280 279 279 279 278 277 277 277 277 277 276 275 275 275 275 275 274 274 274 274 273 273 273 273 276 276 273 273 273 273 273 273 275 274 273
281 281 281 280 280 279 279 279 278 278 278 277 277 277 276 276 276 275 275 275 275 275 274 274 274 274 274 273 273 273 273 272 274 273 273 273 272 273 273 273 273 272
280 280 280 279 279 278 278 277 277 277 277 277 277 276 276 275 275 274 275 274 274 274 273 273 273 273 273 273 273 272 272 273 272 272 273 273 273 272 272 272 272 272
280 280 279 278 277 277 277 277 276 276 276 276 276 276 275 275 275 274 273 274 274 273 273 272 272 273 273 273 273 272 272 272 272 273 273 273 273 273 275 273 272 272
279 279 278 277 277 277 276 277 277 277 277 277 276 275 274 274 274 273 273 272 272 272 272 272 272 272 272 271 272 272 272 272 273 273 273 273 273 273 272 273 272 272
279 279 278 277 277 277 277 277 277 277 276 275 275 274 273 273 273 272 273 272 272 272 272 272 272 271 271 271 271 272 272 273 273 273 273 273 273 273 273 272 272 272
279 278 278 278 278 277 277 276 276 276 276 276 275 274 273 273 272 272 272 272 271 271 271 271 271 271 271 271 271 272 272 273 273 273 273 273 272 272 273 273 273 272
279 279 279 279 279 278 277 277 276 276 276 275 274 273 274 272 272 272 272 271 271 271 271 271 271 272 271 271 270 272 272 272 273 272 272 272 272 272 272 272 272 273
280 280 279 279 278 278 277 276 276 275 274 273 272 272 271 271 271 271 271 271 270 271 271 271 271 272 274 276 275 271 272 273 273 272 272 272 271 271 271 272 272 273
280 279 279 278 278 277 276 276 275 274 273 271 270 269 270 270 270 270 270 270 270 270 270 271 271 272 276 276 277 277 275 274 273 273 274 273 272 271 271 271 272 272
280 280 279 278 278 277 276 276 274 273 272 271 270 269 269 268 269 269 270 270 270 269 269 270 270 275 277 277 277 277 277 274 274 273 273 273 273 272 272 271 271 271
281 280 279 278 278 277 276 275 274 273 271 270 269 269 267 268 270 270 269 269 269 269 269 269 269 275 277 277 277 277 277 276 275 274 273 273 273 273 273 272 270 270
280 280 279 278 277 276 275 274 273 272 271 270 269 269 269 268 267 268 268 268 268 268 268 268 268 274 277 277 276 276 277 276 274 274 273 273 273 273 273 271 269 269
280 280 279 278 277 276 274 273 272 271 270 269 269 270 269 268 268 268 267 266 266 266 267 267 268 274 276 276 276 276 276 276 274 274 273 273 273 273 270 269 269 270
280 279 279 278 276 275 273 273 271 270 269 269 269 268 268 267 267 267 267 267 266 265 265 266 266 274 275 276 276 276 276 274 273 273 272 272 270 271 270 270 270 270
280 279 279 277 276 274 273 272 271 269 269 269 268 269 269 268 267 267 267 266 265 265 265 265 264 270 275 276 276 276 275 273 272 271 271 270 270 271 270 270 270 270
280 280 279 277 275 273 272 272 270 270 269 269 269 268 268 268 267 265 265 265 265 264 265 263 263 268 273 275 275 276 275 271 270 270 270 270 270 271 271 271 271 273
280 279 279 276 274 274 272 271 271 270 269 269 268 268 268 267 266 265 264 264 264 264 267 265 263 266 272 274 275 275 275 272 271 270 269 269 270 270 271 271 272 273
279 279 278 276 275 274 272 272 271 269 268 268 267 267 267 266 265 265 264 264 263 263 263 265 264 263 265 272 274 275 276 272 270 269 269 269 270 270 270 271 272 272
Wind_Speed
7 7 8 8 7 7 7 8 7 8 7 6 7 5 5 3 4 4 4 4 4 4 4 4 4 5 5 5 4 4 4 4 3 4 4 3 4 4 4 4 4 3
7 8 7 7 7 7 7 7 8 8 8 7 6 6 4 4 3 3 3 4 4 4 4 4 4 4 4 4 4 3 4 3 4 3 3 3 2 3 3 4 3 4
8 8 8 8 9 8 8 7 8 7 7 6 5 4 4 3 4 3 3 4 4 4 4 4 4 4 4 4 4 3 3 3 4 4 4 3 1 2 3 3 4 4
7 7 8 8 8 8 7 9 8 7 6 6 5 4 3 3 4 4 4 4 4 4 4 4 4 4 4 4 4 3 4 3 4 4 4 4 3 3 3 2 3 4
8 8 7 7 7 8 8 9 7 6 6 6 5 4 4 4 4 4 4 4 4 4 4 4 4 4 4 4 3 3 4 4 4 4 4 4 3 3 2 3 3 4
6 7 7 7 7 8 8 7 7 7 6 5 4 4 4 4 4 4 4 4 4 4 4 4 4 4 3 3 3 4 4 4 3 4 3 3 3 4 2 3 3 4
8 7 7 7 7 7 8 7 6 6 5 4 5 4 4 4 4 4 4 4 4 4 4 4 3 3 3 3 3 3 3 3 2 2 3 3 3 3 3 3 3 3
8 6 7 7 7 7 7 7 6 6 5 4 5 4 4 4 4 4 4 4 4 4 3 3 3 2 2 3 3 2 3 1 0 2 2 3 2 2 3 3 2 3
8 7 7 7 8 7 7 6 6 5 5 5 4 4 4 4 4 4 4 4 4 3 3 2 2 2 1 2 1 1 1 1 2 1 1 1 2 2 2 2 3 3
8 7 7 7 8 7 7 6 6 4 5 5 5 4 4 3 4 4 4 4 3 3 3 2 2 2 1 0 1 1 0 1 1 1 1 2 2 2 2 2 3 3
8 7 8 7 7 7 7 7 6 5 4 5 5 4 4 4 3 2 3 4 3 3 3 3 3 2 1 0 1 1 1 0 1 1 1 1 2 2 3 2 3 3
9 8 8 8 8 8 8 7 7 6 6 5 5 5 4 4 4 3 3 3 4 3 3 2 3 2 1 1 1 0 0 0 1 0 1 1 2 2 2 2 2 3
9 9 9 9 8 8 7 7 7 7 6 6 5 5 4 4 4 4 3 3 3 4 3 3 2 2 2 2 2 1 1 1 0 0 1 1 2 2 3 3 3 3
9 8 8 9 8 8 7 7 7 7 6 5 5 5 5 4 4 4 3 4 3 3 3 3 3 3 3 3 2 2 1 0 0 0 1 2 2 3 3 3 3 3
9 8 7 9 9 9 8 8 7 7 6 6 5 4 4 4 4 4 4 4 3 3 3 3 4 3 3 3 3 1 2 1 1 1 2 2 3 3 3 3 4 4
10 9 9 9 9 9 8 8 7 7 6 6 5 4 4 3 3 3 3 4 4 4 4 4 3 3 5 8 5 3 1 0 1 2 2 3 3 3 3 3 4 4
10 9 10 10 9 9 7 9 9 7 6 5 4 4 4 4 4 4 4 4 4 4 4 4 4 3 9 7 7 6 4 3 2 3 4 4 3 3 4 4 4 4
11 11 11 11 10 10 9 8 8 7 7 6 6 5 5 3 4 4 4 4 4 4 4 4 4 7 10 8 7 6 6 4 3 3 4 5 5 4 4 3 4 3
11 12 11 10 10 9 8 8 9 8 8 8 8 5 4 5 6 5 5 4 4 5 4 4 4 7 9 8 7 7 7 6 4 4 4 5 6 6 5 3 3 4
12 12 11 11 10 9 9 9 9 10 8 7 6 6 6 5 5 5 5 5 5 5 4 4 3 7 9 9 8 7 7 6 4 5 5 6 6 6 5 3 3 3
13 12 11 10 10 10 9 9 10 8 8 8 8 8 8 8 7 6 5 5 5 4 4 4 3 8 9 9 8 8 7 7 4 5 5 5 6 4 3 3 3 4
12 12 11 11 11 10 10 10 9 10 10 8 7 6 5 4 4 4 6 6 5 4 4 5 4 8 9 9 8 8 8 5 4 5 5 4 3 4 3 4 4 4
12 12 12 12 12 12 12 11 11 9 7 7 8 8 8 8 8 7 5 6 5 5 6 6 4 7 9 9 9 9 7 3 5 4 4 4 5 5 4 4 5 5
13 13 13 13 12 14 13 11 9 7 9 9 11 10 9 9 7 6 5 6 6 7 7 6 5 6 9 9 10 10 8 5 5 3 4 5 4 5 4 4 6 12
12 12 12 13 13 13 12 12 11 12 9 8 7 7 8 7 7 7 6 5 6 6 8 8 5 6 9 10 11 11 9 4 4 4 4 5 5 5 5 5 6 8
11 12 12 13 14 12 10 10 8 7 9 9 8 7 7 7 7 7 8 7 5 5 6 6 6 5 6 12 12 13 14 6 5 5 7 6 5 5 5 5 6 6
Wind_Direction
117 117 117 112 109 110 112 110 108 107 105 101 104 105 100 92 76 81 83 75 67 64 61 60 59 45 34 36 22 33 61 53 31 61 5 15 17 39 25 4 346 19
116 113 111 109 105 103 103 105 107 105 104 104 108 110 109 104 93 90 102 108 94 78 69 61 61 62 48 40 16 43 54 39 46 25 13 359 27 45 21 349 355 354
116 115 118 120 121 116 111 103 101 101 107 114 110 107 116 114 108 91 81 87 93 84 69 70 65 62 51 33 24 48 64 50 58 11 10 337 12 68 8 360 357 347
111 115 118 117 118 117 110 105 98 102 102 102 116 130 130 133 125 118 95 94 95 94 84 72 74 62 46 30 28 27 31 54 77 39 7 353 357 70 0 18 347 348
122 118 117 117 117 111 109 111 117 114 114 126 128 141 143 132 125 120 116 102 89 77 79 79 60 66 55 32 20 45 26 51 34 33 13 346 329 52 349 30 349 341
115 119 122 122 122 119 115 117 120 123 131 138 146 135 139 121 113 110 100 91 90 83 70 67 64 44 55 32 22 55 43 49 15 19 7 348 338 2 358 21 4 346
130 128 125 123 117 114 116 120 123 126 137 143 127 142 135 120 115 115 107 108 92 89 85 76 70 57 24 42 38 55 30 82 15 10 8 328 0 342 349 23 356 336
128 128 128 124 120 119 120 123 130 133 140 126 129 140 120 123 119 112 108 104 111 91 83 85 71 73 56 55 58 40 17 55 86 16 355 336 358 343 348 350 354 318
133 135 133 129 126 125 124 127 132 138 137 135 136 127 119 120 131 120 106 110 107 116 110 102 102 95 66 99 47 78 45 7 8 34 343 327 341 320 317 324 346 318
140 140 135 135 131 131 131 133 135 137 134 132 137 130 124 113 104 118 125 117 126 128 140 139 120 109 96 95 134 115 83 356 337 354 331 308 295 296 309 327 302 312
147 146 144 141 136 136 139 137 139 137 133 139 135 137 132 123 122 127 147 138 146 142 135 145 137 131 128 92 104 116 121 185 282 278 282 289 295 291 304 303 294 295
153 153 155 149 142 142 146 147 144 144 144 143 144 142 135 145 161 168 170 162 152 145 142 139 131 129 141 166 155 132 128 229 220 235 308 318 295 286 277 288 290 285
162 164 158 149 147 148 148 148 147 146 147 151 147 140 141 162 165 164 159 152 159 143 149 146 130 147 175 176 149 169 179 192 226 39 332 299 289 291 296 283 275 270
166 162 154 148 146 147 150 150 147 149 150 146 133 143 160 170 173 169 178 150 177 148 161 138 155 184 189 163 151 142 124 81 68 251 264 277 278 288 282 274 269 272
162 160 151 147 149 152 152 154 154 151 145 137 135 153 157 165 167 164 176 165 170 160 172 162 175 191 178 139 123 87 106 114 272 258 272 279 282 278 290 301 297 284
165 160 155 149 153 159 159 155 153 153 144 140 147 154 154 158 157 171 185 184 180 183 180 183 180 189 163 165 163 150 133 210 251 255 257 261 270 282 279 278 277 273
163 161 154 160 161 156 159 159 158 154 146 144 149 151 166 169 166 194 199 203 189 191 190 184 185 182 184 188 189 193 191 215 231 251 260 264 266 265 263 265 271 278
168 162 163 167 164 169 167 164 155 151 153 154 156 160 174 165 189 204 206 205 197 197 197 199 184 196 196 194 199 205 207 210 227 248 253 258 260 256 257 262 270 284
166 169 171 171 173 168 165 159 159 157 156 159 172 172 163 183 207 202 211 202 192 206 206 204 191 206 199 203 205 212 219 225 233 241 249 254 259 264 265 265 273 284
172 172 175 174 169 166 164 168 167 174 169 164 156 161 180 191 205 209 203 206 202 206 212 209 193 211 209 208 208 215 223 228 233 239 250 254 258 262 264 278 283 277
177 177 176 172 170 169 170 176 178 167 165 170 170 178 180 190 198 201 204 201 208 203 206 216 207 215 215 211 212 217 225 232 232 241 243 251 254 259 265 257 261 267
178 178 176 174 173 172 176 180 179 178 175 172 168 175 177 177 205 191 203 206 202 197 207 225 230 222 219 218 217 219 223 228 233 240 244 244 252 254 253 252 248 249
179 179 181 178 176 176 183 185 180 181 176 167 169 178 179 191 197 199 195 194 199 199 207 228 224 230 226 219 218 219 218 210 225 230 239 237 245 244 244 244 239 240
184 183 183 180 177 187 189 189 182 176 178 176 178 178 187 194 185 188 194 190 196 205 204 213 226 226 226 224 222 219 214 202 215 216 235 238 241 249 248 245 246 260
188 185 185 182 186 194 188 181 182 183 179 176 183 181 186 168 174 184 197 204 201 201 211 213 225 228 228 227 224 222 217 187 198 210 231 239 235 237 240 239 246 253
188 188 189 186 193 191 185 186 168 157 172 179 182 178 173 173 174 181 194 210 200 198 213 214 218 232 229 233 228 224 217 193 193 212 228 232 227 230 231 241 235 232